KLM1818 OMDB-VOMM

Flight info

Callsign KLM1818
Flight time 3h 28m
Altitude 31000
Route IVURO M428 MUNGA A777 VAXIM P307 PARAR N571 BEKUT Q9 EPKOS B211 ANIRO ANIRO2F
Aircraft B77L/H-SDE1E2E3FGHIJ2J3J4J5M1RWXY/LB1D1

Departure

Time 2026-05-08 16:04
Airport Dubai International Airport (OMDB)

Arrival

Time 2026-05-08 19:33
Airport Chennai International Airport (VOMM)
Time Latitude Longitude Altitude Speed Heading
2026-05-08 15:38 25.26213 55.36213 26 ft 0 kts 30°
2026-05-08 15:52 25.26204 55.36208 26 ft 4 kts 32°
2026-05-08 15:52 25.26182 55.36191 25 ft 4 kts 42°
2026-05-08 15:52 25.26165 55.36170 24 ft 4 kts 59°
2026-05-08 15:53 25.26156 55.36147 24 ft 4 kts 94°
2026-05-08 15:53 25.26159 55.36132 24 ft 0 kts 122°
2026-05-08 15:56 25.26158 55.36133 24 ft 3 kts 122°
2026-05-08 15:56 25.26129 55.36186 26 ft 10 kts 121°
2026-05-08 15:57 25.26079 55.36276 26 ft 18 kts 122°
2026-05-08 15:57 25.25972 55.36316 26 ft 11 kts 194°
2026-05-08 15:57 25.25960 55.36316 26 ft 7 kts 172°
2026-05-08 15:57 25.25892 55.36381 26 ft 19 kts 111°
2026-05-08 15:58 25.25828 55.36557 26 ft 26 kts 118°
2026-05-08 15:58 25.25732 55.36724 26 ft 26 kts 122°
2026-05-08 15:58 25.25639 55.36895 25 ft 26 kts 123°
2026-05-08 15:58 25.25545 55.37065 26 ft 26 kts 121°
2026-05-08 15:59 25.25449 55.37235 26 ft 26 kts 123°
2026-05-08 15:59 25.25356 55.37406 26 ft 26 kts 121°
2026-05-08 15:59 25.25260 55.37576 26 ft 26 kts 121°
2026-05-08 15:59 25.25209 55.37669 26 ft 0 kts 121°
2026-05-08 16:00 25.25187 55.37710 26 ft 13 kts 121°
2026-05-08 16:00 25.25134 55.37807 31 ft 15 kts 121°
2026-05-08 16:00 25.25079 55.37908 32 ft 15 kts 121°
2026-05-08 16:00 25.25022 55.38007 29 ft 15 kts 122°
2026-05-08 16:01 25.24962 55.38104 29 ft 15 kts 138°
2026-05-08 16:01 25.24909 55.38107 29 ft 0 kts 199°
2026-05-08 16:02 25.24908 55.38107 27 ft 2 kts 199°
2026-05-08 16:02 25.24841 55.38069 32 ft 14 kts 216°
2026-05-08 16:02 25.24829 55.37985 27 ft 0 kts 293°
2026-05-08 16:03 25.24850 55.37937 32 ft 19 kts 299°
2026-05-08 16:03 25.24965 55.37731 29 ft 44 kts 302°
2026-05-08 16:03 25.25185 55.37337 26 ft 76 kts 301°
2026-05-08 16:03 25.25585 55.36620 26 ft 152 kts 300°
2026-05-08 16:04 25.26254 55.35366 91 ft 216 kts 299°
2026-05-08 16:04 25.27060 55.33983 954 ft 213 kts 301°
2026-05-08 16:04 25.27822 55.32633 1777 ft 199 kts 300°
2026-05-08 16:04 25.28568 55.31285 2087 ft 214 kts 300°
2026-05-08 16:05 25.29502 55.29981 2327 ft 224 kts 326°
2026-05-08 16:05 25.31000 55.29480 2672 ft 233 kts 356°
2026-05-08 16:05 25.32635 55.29520 3078 ft 238 kts 358°
2026-05-08 16:05 25.34294 55.29563 3625 ft 237 kts 359°
2026-05-08 16:06 25.35924 55.29609 3982 ft 238 kts 359°
2026-05-08 16:06 25.37600 55.29653 3995 ft 243 kts 359°
2026-05-08 16:06 25.39269 55.29847 4274 ft 244 kts 19°
2026-05-08 16:06 25.40712 55.30888 4551 ft 259 kts 46°
2026-05-08 16:07 25.41881 55.32485 4761 ft 273 kts 50°
2026-05-08 16:07 25.43079 55.34144 5264 ft 279 kts 50°
2026-05-08 16:07 25.44297 55.35825 5876 ft 281 kts 50°
2026-05-08 16:07 25.45523 55.37513 6483 ft 282 kts 51°
2026-05-08 16:08 25.46766 55.39216 6971 ft 287 kts 51°
2026-05-08 16:08 25.48035 55.40952 7502 ft 292 kts 51°
2026-05-08 16:08 25.49307 55.42732 7999 ft 297 kts 52°
2026-05-08 16:08 25.50556 55.44527 8556 ft 300 kts 52°
2026-05-08 16:09 25.51831 55.46363 9126 ft 302 kts 53°
2026-05-08 16:09 25.52820 55.48403 9512 ft 305 kts 78°
2026-05-08 16:09 25.52874 55.50731 9963 ft 304 kts 105°
2026-05-08 16:09 25.52087 55.52891 10405 ft 306 kts 122°
2026-05-08 16:10 25.50930 55.54951 10532 ft 325 kts 124°
2026-05-08 16:10 25.49660 55.57118 10687 ft 345 kts 124°
2026-05-08 16:10 25.48317 55.59408 10844 ft 365 kts 124°
2026-05-08 16:10 25.46914 55.61828 11123 ft 380 kts 123°
2026-05-08 16:11 25.45483 55.64327 11623 ft 388 kts 123°
2026-05-08 16:11 25.44038 55.66860 12298 ft 391 kts 123°
2026-05-08 16:11 25.42659 55.69404 13020 ft 390 kts 117°
2026-05-08 16:11 25.41846 55.72274 13451 ft 396 kts 102°
2026-05-08 16:12 25.41319 55.75284 13980 ft 401 kts 103°
2026-05-08 16:12 25.40734 55.78298 14677 ft 401 kts 104°
2026-05-08 16:12 25.40101 55.81320 15283 ft 405 kts 104°
2026-05-08 16:12 25.39445 55.84364 15854 ft 409 kts 104°
2026-05-08 16:13 25.38783 55.87434 16443 ft 412 kts 104°
2026-05-08 16:13 25.38119 55.90529 17025 ft 416 kts 104°
2026-05-08 16:13 25.37449 55.93655 17594 ft 419 kts 104°
2026-05-08 16:13 25.36787 55.96755 18138 ft 422 kts 104°
2026-05-08 16:14 25.36110 55.99928 18607 ft 426 kts 104°
2026-05-08 16:14 25.35426 56.03130 19065 ft 430 kts 104°
2026-05-08 16:14 25.34735 56.06361 19508 ft 434 kts 104°
2026-05-08 16:14 25.34038 56.09620 19943 ft 437 kts 104°
2026-05-08 16:15 25.33333 56.12910 20360 ft 441 kts 104°
2026-05-08 16:15 25.32606 56.16218 20801 ft 444 kts 107°
2026-05-08 16:15 25.31672 56.19435 21217 ft 447 kts 111°
2026-05-08 16:15 25.30568 56.22658 21633 ft 451 kts 112°
2026-05-08 16:16 25.29429 56.25892 22075 ft 454 kts 112°
2026-05-08 16:16 25.28303 56.29170 22495 ft 458 kts 112°
2026-05-08 16:16 25.27202 56.32488 22885 ft 461 kts 111°
2026-05-08 16:16 25.26109 56.35831 23292 ft 465 kts 111°
2026-05-08 16:17 25.25010 56.39197 23634 ft 468 kts 111°
2026-05-08 16:17 25.23895 56.42588 23951 ft 471 kts 111°
2026-05-08 16:17 25.22783 56.45953 24266 ft 474 kts 111°
2026-05-08 16:17 25.21648 56.49384 24580 ft 477 kts 111°
2026-05-08 16:18 25.20502 56.52850 24677 ft 483 kts 111°
2026-05-08 16:18 25.19349 56.56336 24719 ft 483 kts 111°
2026-05-08 16:18 25.18188 56.59798 24813 ft 483 kts 112°
2026-05-08 16:18 25.16931 56.63250 25149 ft 484 kts 114°
2026-05-08 16:19 25.15621 56.66682 25505 ft 486 kts 115°
2026-05-08 16:19 25.14291 56.70119 25820 ft 489 kts 115°
2026-05-08 16:19 25.12950 56.73583 26108 ft 492 kts 115°
2026-05-08 16:19 25.11627 56.77025 26406 ft 496 kts 114°
2026-05-08 16:20 25.10286 56.80538 26696 ft 499 kts 114°
2026-05-08 16:20 25.08941 56.84079 27004 ft 501 kts 114°
2026-05-08 16:20 25.07592 56.87640 27307 ft 504 kts 114°
2026-05-08 16:20 25.06237 56.91218 27597 ft 507 kts 114°
2026-05-08 16:21 25.04875 56.94812 27893 ft 510 kts 114°
2026-05-08 16:21 25.03502 56.98429 28176 ft 513 kts 114°
2026-05-08 16:21 25.02120 57.02068 28449 ft 515 kts 114°
2026-05-08 16:21 25.00731 57.05718 28704 ft 518 kts 114°
2026-05-08 16:22 24.99352 57.09341 28955 ft 521 kts 114°
2026-05-08 16:22 24.97947 57.13026 29205 ft 523 kts 114°
2026-05-08 16:22 24.96537 57.16721 29510 ft 524 kts 114°
2026-05-08 16:22 24.95125 57.20420 29869 ft 523 kts 114°
2026-05-08 16:23 24.93714 57.24114 30226 ft 522 kts 114°
2026-05-08 16:23 24.92308 57.27790 30617 ft 520 kts 114°
2026-05-08 16:23 24.90907 57.31451 31001 ft 518 kts 114°
2026-05-08 16:23 24.89507 57.35105 31352 ft 517 kts 114°
2026-05-08 16:24 24.88111 57.38745 31699 ft 516 kts 114°
2026-05-08 16:24 24.86734 57.42334 32049 ft 515 kts 115°
2026-05-08 16:24 24.85344 57.45952 32403 ft 513 kts 115°
2026-05-08 16:24 24.83954 57.49568 32759 ft 512 kts 115°
2026-05-08 16:25 24.82566 57.53174 33109 ft 511 kts 115°
2026-05-08 16:25 24.81182 57.56768 33435 ft 510 kts 115°
2026-05-08 16:25 24.79798 57.60358 33762 ft 509 kts 115°
2026-05-08 16:25 24.78418 57.63936 34023 ft 508 kts 115°
2026-05-08 16:26 24.77038 57.67511 34275 ft 507 kts 115°
2026-05-08 16:26 24.75661 57.71078 34536 ft 506 kts 115°
2026-05-08 16:26 24.74279 57.74652 34666 ft 509 kts 115°
2026-05-08 16:26 24.72929 57.78202 34701 ft 510 kts 112°
2026-05-08 16:27 24.70574 57.85544 34725 ft 507 kts 110°
2026-05-08 16:27 24.68333 57.92861 34730 ft 504 kts 110°
2026-05-08 16:28 24.66084 58.00133 34737 ft 502 kts 110°
2026-05-08 16:28 24.63812 58.07386 34735 ft 502 kts 110°
2026-05-08 16:29 24.61546 58.14586 34740 ft 502 kts 110°
2026-05-08 16:29 24.59261 58.21834 34741 ft 503 kts 110°
2026-05-08 16:30 24.56968 58.29101 34737 ft 504 kts 110°
2026-05-08 16:30 24.54667 58.36380 34732 ft 505 kts 110°
2026-05-08 16:31 24.52371 58.43629 34731 ft 506 kts 110°
2026-05-08 16:31 24.50055 58.50928 34731 ft 507 kts 110°
2026-05-08 16:32 24.47730 58.58241 34732 ft 507 kts 110°
2026-05-08 16:32 24.45401 58.65555 34731 ft 508 kts 110°
2026-05-08 16:33 24.43083 58.72821 34729 ft 508 kts 110°
2026-05-08 16:33 24.40408 58.79960 34734 ft 505 kts 117°
2026-05-08 16:34 24.37295 58.86868 34731 ft 505 kts 118°
2026-05-08 16:34 24.34168 58.93772 34735 ft 505 kts 117°
2026-05-08 16:35 24.31076 59.00684 34733 ft 505 kts 117°
2026-05-08 16:35 24.28016 59.07555 34732 ft 505 kts 117°
2026-05-08 16:36 24.24933 59.14469 34736 ft 505 kts 117°
2026-05-08 16:36 24.21841 59.21384 34736 ft 505 kts 117°
2026-05-08 16:37 24.18747 59.28294 34735 ft 505 kts 117°
2026-05-08 16:37 24.15668 59.35159 34736 ft 506 kts 117°
2026-05-08 16:38 24.12565 59.42070 34739 ft 506 kts 117°
2026-05-08 16:38 24.09457 59.48982 34742 ft 506 kts 117°
2026-05-08 16:39 24.06362 59.55843 34745 ft 506 kts 117°
2026-05-08 16:39 24.03235 59.62750 34746 ft 507 kts 117°
2026-05-08 16:40 24.00108 59.69655 34749 ft 507 kts 117°
2026-05-08 16:40 23.96977 59.76559 34751 ft 507 kts 117°
2026-05-08 16:41 23.93864 59.83415 34751 ft 507 kts 117°
2026-05-08 16:42 23.89155 59.93767 34754 ft 507 kts 117°
2026-05-08 16:42 23.86012 60.00665 34755 ft 507 kts 117°
2026-05-08 16:43 23.82864 60.07562 34755 ft 507 kts 117°
2026-05-08 16:43 23.79735 60.14408 34757 ft 507 kts 117°
2026-05-08 16:44 23.76582 60.21296 34758 ft 507 kts 117°
2026-05-08 16:44 23.73427 60.28179 34760 ft 507 kts 117°
2026-05-08 16:45 23.70268 60.35062 34761 ft 507 kts 117°
2026-05-08 16:45 23.67127 60.41892 34765 ft 507 kts 117°
2026-05-08 16:46 23.63962 60.48768 34763 ft 507 kts 117°
2026-05-08 16:46 23.60794 60.55640 34768 ft 507 kts 118°
2026-05-08 16:47 23.57622 60.62510 34766 ft 507 kts 118°
2026-05-08 16:47 23.54470 60.69327 34768 ft 507 kts 117°
2026-05-08 16:48 23.51295 60.76184 34772 ft 507 kts 118°
2026-05-08 16:48 23.48115 60.83043 34770 ft 507 kts 118°
2026-05-08 16:49 23.44932 60.89899 34775 ft 507 kts 118°
2026-05-08 16:49 23.41767 60.96705 34776 ft 507 kts 118°
2026-05-08 16:50 23.38578 61.03555 34777 ft 507 kts 118°
2026-05-08 16:50 23.35386 61.10403 34779 ft 507 kts 118°
2026-05-08 16:51 23.32189 61.17252 34781 ft 507 kts 118°
2026-05-08 16:51 23.29076 61.24083 34777 ft 508 kts 116°
2026-05-08 16:52 23.26021 61.31010 34785 ft 508 kts 116°
2026-05-08 16:52 23.22958 61.37934 34783 ft 508 kts 116°
2026-05-08 16:53 23.18333 61.48301 34782 ft 508 kts 116°
2026-05-08 16:53 23.15264 61.55159 34783 ft 508 kts 116°
2026-05-08 16:54 23.12171 61.62067 34788 ft 508 kts 116°
2026-05-08 16:54 23.09079 61.68967 34790 ft 508 kts 116°
2026-05-08 16:55 23.05980 61.75867 34790 ft 508 kts 116°
2026-05-08 16:55 23.02882 61.82762 34789 ft 508 kts 116°
2026-05-08 16:56 22.99805 61.89608 34793 ft 508 kts 117°
2026-05-08 16:56 22.96705 61.96494 34794 ft 508 kts 116°
2026-05-08 16:57 22.93601 62.03381 34794 ft 508 kts 117°
2026-05-08 16:57 22.90493 62.10265 34792 ft 508 kts 117°
2026-05-08 16:58 22.87386 62.17139 34793 ft 508 kts 117°
2026-05-08 16:58 22.84293 62.23971 34798 ft 508 kts 117°
2026-05-08 16:59 22.81176 62.30847 34800 ft 508 kts 117°
2026-05-08 16:59 22.78057 62.37717 34798 ft 508 kts 117°
2026-05-08 17:00 22.74933 62.44591 34799 ft 508 kts 117°
2026-05-08 17:00 22.71825 62.51416 34801 ft 509 kts 117°
2026-05-08 17:01 22.68693 62.58288 34804 ft 509 kts 117°
2026-05-08 17:01 22.65557 62.65157 34806 ft 509 kts 117°
2026-05-08 17:02 22.62418 62.72025 34809 ft 509 kts 117°
2026-05-08 17:02 22.59296 62.78844 34811 ft 509 kts 117°
2026-05-08 17:03 22.56149 62.85710 34814 ft 509 kts 117°
2026-05-08 17:03 22.52998 62.92575 34814 ft 510 kts 117°
2026-05-08 17:04 22.49843 62.99440 34815 ft 510 kts 117°
2026-05-08 17:04 22.46707 63.06256 34820 ft 510 kts 117°
2026-05-08 17:05 22.43549 63.13117 34822 ft 510 kts 116°
2026-05-08 17:05 22.40448 63.20018 34824 ft 510 kts 116°
2026-05-08 17:06 22.37375 63.26928 34821 ft 511 kts 116°
2026-05-08 17:06 22.34311 63.33793 34824 ft 511 kts 116°
2026-05-08 17:07 22.31215 63.40700 34826 ft 511 kts 116°
2026-05-08 17:07 22.28111 63.47608 34827 ft 512 kts 116°
2026-05-08 17:08 22.25000 63.54521 34830 ft 512 kts 116°
2026-05-08 17:08 22.21908 63.61386 34830 ft 512 kts 116°
2026-05-08 17:09 22.18793 63.68290 34832 ft 512 kts 116°
2026-05-08 17:09 22.15677 63.75189 34832 ft 511 kts 116°
2026-05-08 17:10 22.12561 63.82079 34834 ft 511 kts 116°
2026-05-08 17:10 22.09467 63.88909 34838 ft 510 kts 116°
2026-05-08 17:11 22.06353 63.95777 34837 ft 510 kts 116°
2026-05-08 17:11 22.03236 64.02637 34838 ft 509 kts 116°
2026-05-08 17:12 22.00120 64.09490 34841 ft 509 kts 116°
2026-05-08 17:12 21.97002 64.16336 34841 ft 509 kts 116°
2026-05-08 17:13 21.93902 64.23134 34841 ft 509 kts 116°
2026-05-08 17:13 21.90779 64.29973 34844 ft 508 kts 116°
2026-05-08 17:14 21.87656 64.36803 34845 ft 508 kts 116°
2026-05-08 17:14 21.84531 64.43628 34843 ft 508 kts 116°
2026-05-08 17:15 21.81425 64.50403 34847 ft 508 kts 116°
2026-05-08 17:15 21.78295 64.57220 34853 ft 508 kts 116°
2026-05-08 17:16 21.75163 64.64034 34849 ft 508 kts 116°
2026-05-08 17:16 21.72028 64.70845 34850 ft 508 kts 116°
2026-05-08 17:17 21.68890 64.77652 34855 ft 508 kts 116°
2026-05-08 17:17 21.65769 64.84417 34855 ft 508 kts 116°
2026-05-08 17:18 21.62626 64.91218 34855 ft 508 kts 116°
2026-05-08 17:18 21.59476 64.98024 34855 ft 508 kts 116°
2026-05-08 17:19 21.56353 65.04763 34845 ft 501 kts 116°
2026-05-08 17:19 21.53286 65.11375 34849 ft 495 kts 116°
2026-05-08 17:20 21.50218 65.17981 34851 ft 493 kts 116°
2026-05-08 17:20 21.47155 65.24567 34859 ft 493 kts 116°
2026-05-08 17:21 21.44089 65.31149 34866 ft 494 kts 116°
2026-05-08 17:21 21.40997 65.37781 34873 ft 499 kts 116°
2026-05-08 17:22 21.37897 65.44422 34872 ft 503 kts 116°
2026-05-08 17:22 21.34760 65.51133 34867 ft 504 kts 116°
2026-05-08 17:23 21.31609 65.57865 34864 ft 505 kts 116°
2026-05-08 17:23 21.28463 65.64577 34863 ft 504 kts 116°
2026-05-08 17:24 21.25336 65.71241 34871 ft 504 kts 116°
2026-05-08 17:24 21.22183 65.77954 34870 ft 504 kts 116°
2026-05-08 17:25 21.19023 65.84670 34875 ft 505 kts 116°
2026-05-08 17:25 21.15860 65.91388 34872 ft 505 kts 116°
2026-05-08 17:26 21.12719 65.98049 34864 ft 502 kts 116°
2026-05-08 17:26 21.09618 66.04711 34861 ft 497 kts 115°
2026-05-08 17:27 21.06613 66.11353 34870 ft 495 kts 115°
2026-05-08 17:27 21.03618 66.17985 34872 ft 495 kts 115°
2026-05-08 17:28 21.00603 66.24625 34876 ft 498 kts 115°
2026-05-08 17:28 20.97581 66.31258 34880 ft 500 kts 115°
2026-05-08 17:29 20.94519 66.37965 34879 ft 502 kts 115°
2026-05-08 17:29 20.91448 66.44684 34877 ft 503 kts 115°
2026-05-08 17:30 20.88372 66.51404 34876 ft 502 kts 115°
2026-05-08 17:30 20.85303 66.58102 34877 ft 501 kts 115°
2026-05-08 17:31 20.82258 66.64741 34874 ft 500 kts 115°
2026-05-08 17:31 20.79199 66.71401 34877 ft 499 kts 115°
2026-05-08 17:32 20.76145 66.78042 34876 ft 498 kts 115°
2026-05-08 17:32 20.73091 66.84674 34878 ft 497 kts 115°
2026-05-08 17:33 20.70043 66.91288 34878 ft 496 kts 115°
2026-05-08 17:33 20.67014 66.97851 34881 ft 496 kts 115°
2026-05-08 17:34 20.63957 67.04464 34879 ft 496 kts 115°
2026-05-08 17:34 20.60901 67.11070 34879 ft 497 kts 115°
2026-05-08 17:35 20.57839 67.17680 34881 ft 497 kts 115°
2026-05-08 17:35 20.54792 67.24251 34881 ft 498 kts 115°
2026-05-08 17:36 20.51715 67.30877 34880 ft 498 kts 115°
2026-05-08 17:36 20.48632 67.37505 34885 ft 499 kts 115°
2026-05-08 17:37 20.45547 67.44133 34883 ft 499 kts 115°
2026-05-08 17:37 20.42476 67.50721 34881 ft 499 kts 115°
2026-05-08 17:38 20.39383 67.57350 34880 ft 499 kts 115°
2026-05-08 17:38 20.36290 67.63971 34881 ft 499 kts 115°
2026-05-08 17:39 20.33193 67.70590 34880 ft 499 kts 115°
2026-05-08 17:39 20.30097 67.77202 34883 ft 499 kts 115°
2026-05-08 17:40 20.27019 67.83766 34885 ft 499 kts 115°
2026-05-08 17:40 20.23918 67.90371 34881 ft 498 kts 115°
2026-05-08 17:41 20.20817 67.96969 34887 ft 498 kts 116°
2026-05-08 17:41 20.17711 68.03569 34884 ft 498 kts 116°
2026-05-08 17:42 20.14625 68.10120 34884 ft 498 kts 116°
2026-05-08 17:42 20.14098 68.11237 34885 ft 499 kts 116°
2026-05-08 17:43 20.08800 68.22461 34886 ft 499 kts 116°
2026-05-08 17:43 20.05177 68.30125 34885 ft 499 kts 116°
2026-05-08 17:44 20.02561 68.35651 34885 ft 499 kts 116°
2026-05-08 17:44 19.99460 68.42196 34885 ft 499 kts 116°
2026-05-08 17:45 19.96333 68.48787 34885 ft 499 kts 116°
2026-05-08 17:45 19.93202 68.55379 34886 ft 500 kts 116°
2026-05-08 17:46 19.90068 68.61969 34886 ft 500 kts 116°
2026-05-08 17:46 19.86934 68.68552 34884 ft 499 kts 116°
2026-05-08 17:47 19.83818 68.75089 34885 ft 499 kts 116°
2026-05-08 17:47 19.80678 68.81670 34882 ft 499 kts 116°
2026-05-08 17:48 19.77538 68.88244 34883 ft 499 kts 116°
2026-05-08 17:48 19.74397 68.94811 34884 ft 499 kts 116°
2026-05-08 17:49 19.71251 69.01381 34881 ft 499 kts 116°
2026-05-08 17:49 19.68122 69.07908 34878 ft 499 kts 116°
2026-05-08 17:50 19.64972 69.14471 34877 ft 499 kts 116°
2026-05-08 17:50 19.61816 69.21040 34879 ft 500 kts 116°
2026-05-08 17:51 19.58679 69.27564 34874 ft 500 kts 116°
2026-05-08 17:51 19.55518 69.34131 34878 ft 500 kts 116°
2026-05-08 17:52 19.52419 69.40729 34871 ft 500 kts 115°
2026-05-08 17:53 19.47893 69.50692 34868 ft 500 kts 115°
2026-05-08 17:53 19.44884 69.57288 34865 ft 500 kts 115°
2026-05-08 17:54 19.41840 69.63924 34868 ft 501 kts 115°
2026-05-08 17:54 19.38791 69.70551 34865 ft 501 kts 115°
2026-05-08 17:55 19.35735 69.77188 34865 ft 501 kts 115°
2026-05-08 17:55 19.32700 69.83775 34863 ft 501 kts 115°
2026-05-08 17:56 19.29640 69.90407 34864 ft 501 kts 115°
2026-05-08 17:56 19.26578 69.97035 34859 ft 501 kts 115°
2026-05-08 17:57 19.23512 70.03665 34858 ft 502 kts 115°
2026-05-08 17:57 19.20464 70.10248 34858 ft 502 kts 115°
2026-05-08 17:58 19.17391 70.16879 34859 ft 502 kts 115°
2026-05-08 17:58 19.14317 70.23504 34857 ft 502 kts 115°
2026-05-08 17:59 19.11237 70.30133 34856 ft 502 kts 115°
2026-05-08 17:59 19.08155 70.36761 34855 ft 502 kts 115°
2026-05-08 18:00 19.05090 70.43344 34851 ft 503 kts 116°
2026-05-08 18:00 19.00451 70.53292 34854 ft 503 kts 116°
2026-05-08 18:01 18.97356 70.59919 34849 ft 503 kts 116°
2026-05-08 18:01 18.94253 70.66557 34850 ft 504 kts 116°
2026-05-08 18:02 18.91168 70.73150 34845 ft 504 kts 116°
2026-05-08 18:02 18.88058 70.79788 34845 ft 504 kts 116°
2026-05-08 18:03 18.84943 70.86429 34850 ft 505 kts 116°
2026-05-08 18:03 18.81823 70.93073 34848 ft 505 kts 116°
2026-05-08 18:04 18.78699 70.99718 34844 ft 506 kts 116°
2026-05-08 18:04 18.75630 71.06237 34846 ft 506 kts 116°
2026-05-08 18:05 18.72494 71.12894 34843 ft 507 kts 116°
2026-05-08 18:05 18.69353 71.19553 34844 ft 507 kts 116°
2026-05-08 18:06 18.66207 71.26216 34843 ft 508 kts 116°
2026-05-08 18:06 18.63078 71.32835 34845 ft 508 kts 116°
2026-05-08 18:07 18.59924 71.39500 34845 ft 508 kts 116°
2026-05-08 18:07 18.56768 71.46159 34844 ft 508 kts 116°
2026-05-08 18:08 18.53614 71.52809 34843 ft 507 kts 116°
2026-05-08 18:08 18.50477 71.59416 34844 ft 507 kts 116°
2026-05-08 18:09 18.47319 71.66059 34844 ft 507 kts 116°
2026-05-08 18:09 18.44158 71.72701 34846 ft 507 kts 116°
2026-05-08 18:10 18.40997 71.79336 34847 ft 507 kts 116°
2026-05-08 18:10 18.37837 71.85961 34845 ft 506 kts 117°
2026-05-08 18:11 18.34694 71.92545 34850 ft 506 kts 117°
2026-05-08 18:11 18.31530 71.99164 34850 ft 506 kts 117°
2026-05-08 18:12 18.28367 72.05775 34847 ft 506 kts 117°
2026-05-08 18:12 18.25203 72.12381 34844 ft 505 kts 117°
2026-05-08 18:13 18.22061 72.18933 34843 ft 505 kts 117°
2026-05-08 18:13 18.18898 72.25521 34846 ft 504 kts 117°
2026-05-08 18:14 18.15738 72.32097 34846 ft 504 kts 117°
2026-05-08 18:14 18.12573 72.38676 34848 ft 504 kts 117°
2026-05-08 18:15 18.09433 72.45196 34847 ft 504 kts 117°
2026-05-08 18:15 18.06268 72.51762 34847 ft 503 kts 117°
2026-05-08 18:16 18.03102 72.58323 34846 ft 503 kts 117°
2026-05-08 18:16 17.99931 72.64885 34847 ft 504 kts 117°
2026-05-08 18:17 17.96780 72.71402 34847 ft 504 kts 117°
2026-05-08 18:17 17.93603 72.77964 34843 ft 504 kts 117°
2026-05-08 18:18 17.90424 72.84525 34843 ft 504 kts 117°
2026-05-08 18:18 17.87239 72.91089 34842 ft 504 kts 117°
2026-05-08 18:19 17.84077 72.97601 34845 ft 504 kts 117°
2026-05-08 18:19 17.80889 73.04160 34843 ft 505 kts 117°
2026-05-08 18:20 17.77697 73.10721 34846 ft 505 kts 117°
2026-05-08 18:20 17.74501 73.17278 34851 ft 505 kts 118°
2026-05-08 18:21 17.70677 73.23435 34855 ft 504 kts 129°
2026-05-08 18:21 17.65980 73.28810 34854 ft 503 kts 135°
2026-05-08 18:22 17.61060 73.34040 34859 ft 504 kts 135°
2026-05-08 18:22 17.56154 73.39288 34859 ft 504 kts 135°
2026-05-08 18:23 17.51268 73.44562 34864 ft 504 kts 135°
2026-05-08 18:23 17.46418 73.49811 34870 ft 505 kts 135°
2026-05-08 18:24 17.41531 73.55093 34879 ft 505 kts 135°
2026-05-08 18:24 17.36639 73.60374 34884 ft 505 kts 135°
2026-05-08 18:25 17.31774 73.65620 34891 ft 505 kts 135°
2026-05-08 18:25 17.26877 73.70897 34897 ft 506 kts 135°
2026-05-08 18:26 17.21973 73.76177 34899 ft 506 kts 135°
2026-05-08 18:26 17.17075 73.81446 34905 ft 505 kts 135°
2026-05-08 18:27 17.13002 73.85823 34906 ft 505 kts 135°
2026-05-08 18:27 17.07315 73.91932 34914 ft 504 kts 135°
2026-05-08 18:28 17.02423 73.97183 34912 ft 504 kts 135°
2026-05-08 18:28 16.97537 74.02424 34913 ft 503 kts 135°
2026-05-08 18:29 16.92652 74.07660 34913 ft 503 kts 135°
2026-05-08 18:29 16.87991 74.13028 34915 ft 503 kts 128°
2026-05-08 18:30 16.84124 74.19113 34920 ft 503 kts 123°
2026-05-08 18:30 16.80412 74.25296 34914 ft 503 kts 123°
2026-05-08 18:31 16.76672 74.31469 34911 ft 503 kts 123°
2026-05-08 18:31 16.72938 74.37572 34909 ft 503 kts 123°
2026-05-08 18:32 16.69163 74.43716 34904 ft 503 kts 123°
2026-05-08 18:32 16.65389 74.49854 34901 ft 503 kts 123°
2026-05-08 18:33 16.61614 74.55992 34901 ft 503 kts 123°
2026-05-08 18:33 16.57862 74.62089 34896 ft 503 kts 123°
2026-05-08 18:34 16.54083 74.68224 34896 ft 503 kts 123°
2026-05-08 18:34 16.50301 74.74358 34896 ft 503 kts 123°
2026-05-08 18:35 16.46522 74.80482 34892 ft 503 kts 123°
2026-05-08 18:35 16.42763 74.86569 34891 ft 502 kts 123°
2026-05-08 18:36 16.38985 74.92682 34888 ft 502 kts 123°
2026-05-08 18:36 16.35202 74.98797 34886 ft 502 kts 123°
2026-05-08 18:37 16.31425 75.04898 34886 ft 501 kts 123°
2026-05-08 18:37 16.27673 75.10952 34886 ft 501 kts 123°
2026-05-08 18:38 16.23899 75.17038 34886 ft 500 kts 123°
2026-05-08 18:38 16.20127 75.23114 34881 ft 500 kts 123°
2026-05-08 18:39 16.16354 75.29188 34881 ft 499 kts 124°
2026-05-08 18:39 16.12583 75.35254 34883 ft 499 kts 124°
2026-05-08 18:40 16.08815 75.41309 34880 ft 499 kts 124°
2026-05-08 18:40 16.05073 75.47318 34884 ft 498 kts 124°
2026-05-08 18:41 16.01301 75.53369 34885 ft 498 kts 124°
2026-05-08 18:41 15.97531 75.59412 34883 ft 498 kts 124°
2026-05-08 18:42 15.93759 75.65454 34884 ft 498 kts 124°
2026-05-08 18:42 15.90010 75.71454 34886 ft 498 kts 124°
2026-05-08 18:43 15.86231 75.77498 34885 ft 499 kts 124°
2026-05-08 18:43 15.82454 75.83534 34889 ft 499 kts 124°
2026-05-08 18:44 15.78669 75.89578 34890 ft 499 kts 124°
2026-05-08 18:44 15.74908 75.95580 34888 ft 500 kts 124°
2026-05-08 18:45 15.71114 76.01627 34890 ft 500 kts 124°
2026-05-08 18:45 15.67313 76.07667 34887 ft 500 kts 124°
2026-05-08 18:46 15.63505 76.13711 34888 ft 500 kts 124°
2026-05-08 18:46 15.59722 76.19714 34887 ft 500 kts 124°
2026-05-08 18:47 15.55912 76.25758 34888 ft 501 kts 124°
2026-05-08 18:47 15.52101 76.31798 34888 ft 501 kts 124°
2026-05-08 18:48 15.48286 76.37840 34891 ft 501 kts 124°
2026-05-08 18:48 15.44494 76.43840 34892 ft 501 kts 124°
2026-05-08 18:49 15.40674 76.49881 34889 ft 501 kts 124°
2026-05-08 18:49 15.36849 76.55923 34891 ft 501 kts 124°
2026-05-08 18:50 15.33026 76.61959 34892 ft 502 kts 124°
2026-05-08 18:50 15.29221 76.67962 34895 ft 502 kts 124°
2026-05-08 18:51 15.25389 76.74001 34898 ft 502 kts 124°
2026-05-08 18:51 15.21553 76.80044 34898 ft 502 kts 124°
2026-05-08 18:52 15.17717 76.86083 34901 ft 502 kts 124°
2026-05-08 18:52 15.13890 76.92066 34902 ft 502 kts 125°
2026-05-08 18:53 15.10000 76.98066 34899 ft 502 kts 125°
2026-05-08 18:53 15.06110 77.04058 34900 ft 502 kts 125°
2026-05-08 18:54 15.02222 77.10053 34899 ft 502 kts 125°
2026-05-08 18:54 14.98338 77.16046 34903 ft 501 kts 125°
2026-05-08 18:55 14.92538 77.24988 34905 ft 501 kts 125°
2026-05-08 18:56 14.88654 77.30969 34905 ft 501 kts 125°
2026-05-08 18:56 14.84770 77.36944 34910 ft 501 kts 125°
2026-05-08 18:57 14.80908 77.42882 34906 ft 501 kts 125°
2026-05-08 18:57 14.77024 77.48850 34906 ft 501 kts 125°
2026-05-08 18:58 14.73136 77.54818 34903 ft 500 kts 125°
2026-05-08 18:58 14.69254 77.60774 34907 ft 500 kts 125°
2026-05-08 18:59 14.65364 77.66736 34908 ft 500 kts 125°
2026-05-08 18:59 14.61507 77.72645 34907 ft 500 kts 125°
2026-05-08 19:00 14.57623 77.78588 34908 ft 499 kts 125°
2026-05-08 19:00 14.53740 77.84527 34907 ft 499 kts 125°
2026-05-08 19:01 14.49863 77.90454 34909 ft 498 kts 125°
2026-05-08 19:01 14.46014 77.96333 34904 ft 497 kts 125°
2026-05-08 19:02 14.42142 78.02243 34905 ft 497 kts 125°
2026-05-08 19:02 14.38273 78.08143 34905 ft 496 kts 125°
2026-05-08 19:03 14.34407 78.14035 34911 ft 496 kts 125°
2026-05-08 19:03 14.30565 78.19888 34916 ft 496 kts 125°
2026-05-08 19:04 14.26698 78.25772 34916 ft 496 kts 125°
2026-05-08 19:04 14.22826 78.31651 34914 ft 496 kts 125°
2026-05-08 19:05 14.18955 78.37525 34915 ft 495 kts 125°
2026-05-08 19:05 14.15086 78.43394 34916 ft 495 kts 125°
2026-05-08 19:06 14.11240 78.49225 34918 ft 495 kts 125°
2026-05-08 19:06 14.07367 78.55094 34915 ft 495 kts 125°
2026-05-08 19:07 14.03495 78.60961 34919 ft 495 kts 124°
2026-05-08 19:07 13.99849 78.66982 34917 ft 496 kts 122°
2026-05-08 19:08 13.96378 78.73060 34911 ft 496 kts 121°
2026-05-08 19:08 13.92867 78.79166 34774 ft 498 kts 122°
2026-05-08 19:08 13.91063 78.82267 34042 ft 507 kts 122°
2026-05-08 19:09 13.89245 78.85381 33091 ft 509 kts 122°
2026-05-08 19:09 13.87413 78.88510 32185 ft 511 kts 122°
2026-05-08 19:09 13.85577 78.91641 31295 ft 512 kts 122°
2026-05-08 19:09 13.83740 78.94777 30593 ft 510 kts 122°
2026-05-08 19:10 13.81916 78.97888 29978 ft 506 kts 121°
2026-05-08 19:10 13.80106 79.00977 29280 ft 502 kts 121°
2026-05-08 19:10 13.78334 79.04001 28663 ft 497 kts 121°
2026-05-08 19:10 13.76558 79.07031 28071 ft 493 kts 121°
2026-05-08 19:11 13.74795 79.10035 27488 ft 488 kts 121°
2026-05-08 19:11 13.73047 79.13016 26921 ft 484 kts 121°
2026-05-08 19:11 13.71314 79.15967 26351 ft 480 kts 121°
2026-05-08 19:11 13.69594 79.18897 25786 ft 477 kts 121°
2026-05-08 19:12 13.67885 79.21807 25227 ft 474 kts 121°
2026-05-08 19:12 13.66184 79.24702 24673 ft 471 kts 121°
2026-05-08 19:12 13.64519 79.27535 24126 ft 468 kts 121°
2026-05-08 19:12 13.62837 79.30395 23577 ft 466 kts 121°
2026-05-08 19:13 13.61166 79.33237 22950 ft 463 kts 121°
2026-05-08 19:13 13.59507 79.36056 22378 ft 459 kts 121°
2026-05-08 19:13 13.57862 79.38852 21836 ft 455 kts 121°
2026-05-08 19:13 13.56230 79.41624 21307 ft 451 kts 121°
2026-05-08 19:14 13.54614 79.44369 20785 ft 447 kts 121°
2026-05-08 19:14 13.53012 79.47088 20276 ft 443 kts 121°
2026-05-08 19:14 13.51423 79.49786 19887 ft 437 kts 121°
2026-05-08 19:14 13.49872 79.52418 19708 ft 426 kts 121°
2026-05-08 19:15 13.48378 79.54951 19518 ft 416 kts 121°
2026-05-08 19:15 13.46897 79.57463 19348 ft 406 kts 121°
2026-05-08 19:15 13.45452 79.59914 19174 ft 396 kts 121°
2026-05-08 19:15 13.44040 79.62305 19019 ft 387 kts 121°
2026-05-08 19:16 13.42651 79.64644 18840 ft 379 kts 123°
2026-05-08 19:16 13.41079 79.66770 18551 ft 365 kts 131°
2026-05-08 19:16 13.39391 79.68641 18096 ft 351 kts 134°
2026-05-08 19:16 13.37717 79.70389 17631 ft 337 kts 134°
2026-05-08 19:17 13.36074 79.72098 17261 ft 336 kts 134°
2026-05-08 19:17 13.34444 79.73818 16869 ft 336 kts 133°
2026-05-08 19:17 13.32848 79.75526 16510 ft 336 kts 133°
2026-05-08 19:17 13.31239 79.77265 16139 ft 336 kts 133°
2026-05-08 19:18 13.29632 79.79013 15762 ft 337 kts 132°
2026-05-08 19:18 13.28030 79.80763 15398 ft 337 kts 132°
2026-05-08 19:18 13.26423 79.82522 15021 ft 338 kts 132°
2026-05-08 19:18 13.24816 79.84283 14633 ft 338 kts 132°
2026-05-08 19:19 13.23236 79.86013 14225 ft 324 kts 131°
2026-05-08 19:19 13.21732 79.87661 13876 ft 310 kts 131°
2026-05-08 19:19 13.20292 79.89237 13516 ft 296 kts 131°
2026-05-08 19:19 13.18897 79.90767 13209 ft 304 kts 131°
2026-05-08 19:20 13.17422 79.92387 12859 ft 316 kts 131°
2026-05-08 19:20 13.16914 79.92945 12726 ft 318 kts 131°
2026-05-08 19:20 13.14396 79.95702 12109 ft 317 kts 131°
2026-05-08 19:20 13.12896 79.97344 11757 ft 314 kts 131°
2026-05-08 19:21 13.11407 79.98974 11409 ft 311 kts 131°
2026-05-08 19:21 13.09934 80.00585 11059 ft 308 kts 131°
2026-05-08 19:21 13.08480 80.02175 10710 ft 301 kts 131°
2026-05-08 19:21 13.07110 80.03735 10367 ft 288 kts 123°
2026-05-08 19:22 13.06366 80.05526 10067 ft 270 kts 96°
2026-05-08 19:22 13.06341 80.07392 9980 ft 261 kts 81°
2026-05-08 19:22 13.06805 80.09234 9828 ft 273 kts 71°
2026-05-08 19:22 13.07485 80.11088 9482 ft 281 kts 69°
2026-05-08 19:23 13.08197 80.12927 9224 ft 278 kts 69°
2026-05-08 19:23 13.08905 80.14771 8856 ft 275 kts 69°
2026-05-08 19:23 13.09592 80.16587 8525 ft 271 kts 70°
2026-05-08 19:23 13.10260 80.18372 8201 ft 266 kts 70°
2026-05-08 19:24 13.10905 80.20115 7922 ft 264 kts 70°
2026-05-08 19:24 13.11551 80.21872 7685 ft 262 kts 70°
2026-05-08 19:24 13.12195 80.23627 7335 ft 264 kts 70°
2026-05-08 19:24 13.12840 80.25385 7030 ft 263 kts 70°
2026-05-08 19:25 13.13491 80.27135 6708 ft 262 kts 69°
2026-05-08 19:25 13.14153 80.28840 6381 ft 251 kts 69°
2026-05-08 19:25 13.14785 80.30456 6063 ft 237 kts 69°
2026-05-08 19:25 13.15380 80.31981 5776 ft 225 kts 70°
2026-05-08 19:26 13.15951 80.33476 5519 ft 225 kts 73°
2026-05-08 19:26 13.16018 80.35055 5310 ft 222 kts 107°
2026-05-08 19:26 13.15277 80.36358 5144 ft 215 kts 135°
2026-05-08 19:26 13.14054 80.37174 4911 ft 206 kts 157°
2026-05-08 19:27 13.12693 80.37447 4696 ft 193 kts 171°
2026-05-08 19:27 13.11377 80.37561 4414 ft 186 kts 172°
2026-05-08 19:27 13.10122 80.37665 4176 ft 176 kts 172°
2026-05-08 19:27 13.08901 80.37758 3982 ft 178 kts 177°
2026-05-08 19:28 13.07691 80.37427 3775 ft 185 kts 206°
2026-05-08 19:28 13.06720 80.36563 3564 ft 188 kts 238°
2026-05-08 19:28 13.06128 80.35395 3409 ft 190 kts 241°
2026-05-08 19:28 13.05534 80.34178 3154 ft 191 kts 244°
2026-05-08 19:29 13.05022 80.32937 2917 ft 187 kts 247°
2026-05-08 19:29 13.04553 80.31706 2672 ft 183 kts 247°
2026-05-08 19:29 13.04102 80.30503 2430 ft 178 kts 248°
2026-05-08 19:29 13.03664 80.29326 2245 ft 177 kts 248°
2026-05-08 19:30 13.03224 80.28149 2002 ft 177 kts 248°
2026-05-08 19:30 13.02787 80.26977 1794 ft 176 kts 248°
2026-05-08 19:30 13.02349 80.25808 1568 ft 174 kts 249°
2026-05-08 19:30 13.01926 80.24672 1346 ft 171 kts 249°
2026-05-08 19:31 13.01508 80.23553 1095 ft 165 kts 249°
2026-05-08 19:31 13.01101 80.22465 914 ft 163 kts 249°
2026-05-08 19:31 13.00692 80.21370 696 ft 165 kts 249°
2026-05-08 19:31 13.00283 80.20273 490 ft 164 kts 248°
2026-05-08 19:32 12.99866 80.19212 215 ft 153 kts 247°
2026-05-08 19:32 12.99545 80.18282 53 ft 120 kts 249°
2026-05-08 19:32 12.99316 80.17769 55 ft 69 kts 240°
2026-05-08 19:32 12.99166 80.17340 51 ft 60 kts 249°
2026-05-08 19:33 12.99104 80.17199 54 ft 6 kts 202°
2026-05-08 19:33 12.99016 80.17226 52 ft 23 kts 150°
2026-05-08 19:33 12.99014 80.17381 58 ft 30 kts 70°
2026-05-08 19:33 12.99088 80.17566 58 ft 7 kts 65°
2026-05-08 19:34 12.99090 80.17572 56 ft 2 kts 66°
2026-05-08 19:34 12.99098 80.17597 54 ft 0 kts 72°
2026-05-08 19:34 12.99107 80.17624 53 ft 9 kts 72°
2026-05-08 19:35 12.99102 80.17686 51 ft 9 kts 121°
2026-05-08 19:35 12.99081 80.17713 51 ft 1 kts 133°
2026-05-08 19:35 12.99068 80.17726 53 ft 0 kts 134°